Montgomery, AL

9:41 PM CDT on June 28, 2017 (GMT -0500)
Montgomery Regional

Weather History for KMGM - February, 2013

Change the Weather History Date:

Thursday, February 21, 2013

  Actual Average Record
Temperature  
Mean Temperature 52 °F 52 °F  
Max Temperature 70 °F 63 °F 81 °F (2011)
Min Temperature 33 °F 41 °F 21 °F (1958)
Degree Days  
Heating Degree Days 13 13  
Month to date heating degree days 310 324  
Since 1 July heating degree days 1399 1786  
Growing Degree Days 2 (Base 50)    
Moisture  
Dew Point 32 °F    
Average Humidity 53    
Maximum Humidity 82    
Minimum Humidity 23    
Precipitation  
Precipitation 0.00 in 0.19 in 3.07 in (1932)
Month to date precipitation 8.62 3.96  
Year to date precipitation 12.03 8.61  
Snow  
Snow 0.00 in 0.00 in - ()
Month to date snowfall 0.0 0.0  
Since 1 July snowfall 0.0 0.1  
Snow Depth 0.00 in    
Sea Level Pressure  
Sea Level Pressure 30.03 in    
Wind  
Wind Speed 8 mph (ESE)    
Max Wind Speed 16 mph    
Max Gust Speed 21 mph    
Visibility 10 miles    
Events      
T = Trace of Precipitation, MM = Missing Value Source: NWS Daily Summary

Daily Weather History Graph

Daily Weather History Graph

Search for Another Location

Airport or City:

Trip Planner

Search our weather history database for the weather conditions in past years. The results will help you decide how hot, cold, wet, or windy it might be!

Date:

Astronomy

Feb. 21, 2013 Rise Set
Actual Time 6:21 AM CST 5:36 PM CST
Civil Twilight 5:56 AM CST 6:01 PM CST
Nautical Twilight 5:28 AM CST 6:30 PM CST
Astronomical Twilight 4:59 AM CST 6:58 PM CST
Moon 1:59 PM CST (2/21) 3:16 AM CST (2/21)
Length of Visible Light 12h 04m
Length of Day
11h 15m
Waxing Gibbous, 84% of the Moon is Illuminated
Feb 21
Waxing Gibbous
Feb 25
Full
Mar 4
Last Quarter
Mar 11
New
Mar 19
First Quarter

Hourly Weather History & Observations

Time (CST) Temp. Windchill Dew Point Humidity Pressure Visibility Wind Dir Wind Speed Gust Speed Precip Events Conditions
12:53 AM 39.0 °F 36.8 °F 24.1 °F 55% 30.14 in 10.0 mi NE 3.5 mph - N/A   Clear
1:53 AM 37.9 °F - 25.0 °F 60% 30.14 in 10.0 mi Calm Calm - N/A   Clear
2:53 AM 36.0 °F 33.3 °F 26.1 °F 67% 30.12 in 10.0 mi NE 3.5 mph - N/A   Clear
3:53 AM 36.0 °F - 26.1 °F 67% 30.12 in 10.0 mi Calm Calm - N/A   Clear
4:53 AM 33.1 °F 30.0 °F 27.0 °F 78% 30.13 in 10.0 mi ENE 3.5 mph - N/A   Clear
5:53 AM 34.0 °F 31.0 °F 27.0 °F 75% 30.14 in 10.0 mi NE 3.5 mph - N/A   Clear
6:53 AM 34.0 °F 28.8 °F 28.0 °F 79% 30.14 in 10.0 mi East 5.8 mph - N/A   Clear
7:53 AM 41.0 °F 36.4 °F 26.1 °F 55% 30.15 in 10.0 mi ENE 6.9 mph - N/A   Clear
8:53 AM 48.0 °F - 21.0 °F 34% 30.17 in 10.0 mi East 10.4 mph - N/A   Clear
9:53 AM 53.1 °F - 24.1 °F 32% 30.15 in 10.0 mi East 6.9 mph - N/A   Clear
10:53 AM 57.9 °F - 26.1 °F 30% 30.11 in 10.0 mi East 11.5 mph - N/A   Partly Cloudy
11:53 AM 63.0 °F - 27.0 °F 26% 30.06 in 10.0 mi East 10.4 mph - N/A   Clear
12:53 PM 64.0 °F - 28.0 °F 26% 30.03 in 10.0 mi East 8.1 mph - N/A   Overcast
1:53 PM 66.0 °F - 28.9 °F 25% 29.98 in 10.0 mi ESE 9.2 mph - N/A   Overcast
2:53 PM 69.1 °F - 30.0 °F 23% 29.94 in 10.0 mi SE 12.7 mph - N/A   Mostly Cloudy
3:53 PM 69.1 °F - 33.1 °F 26% 29.94 in 10.0 mi SE 13.8 mph - N/A   Clear
4:53 PM 66.9 °F - 35.1 °F 31% 29.94 in 10.0 mi SE 9.2 mph - N/A   Mostly Cloudy
5:53 PM 64.0 °F - 35.1 °F 34% 29.92 in 10.0 mi ESE 12.7 mph - N/A   Mostly Cloudy
6:53 PM 62.1 °F - 36.0 °F 38% 29.94 in 10.0 mi SE 6.9 mph - N/A   Clear
7:53 PM 60.1 °F - 37.0 °F 42% 29.94 in 10.0 mi East 5.8 mph - N/A   Mostly Cloudy
8:53 PM 61.0 °F - 39.9 °F 46% 29.92 in 10.0 mi ESE 6.9 mph - N/A   Mostly Cloudy
9:53 PM 63.0 °F - 43.0 °F 48% 29.93 in 10.0 mi SE 8.1 mph - N/A   Overcast
10:53 PM 64.9 °F - 51.1 °F 61% 29.92 in 10.0 mi SSE 11.5 mph - N/A   Mostly Cloudy
11:53 PM 64.9 °F - 53.1 °F 65% 29.93 in 10.0 mi South 10.4 mph - N/A   Overcast